Location: Oshawa
(43.9000°N, 78.8670°W)
Time: 21:51:58
(UTC-04:00)

Cosmos 1408 Rocket - Visible Passes

Search period start: 01 September 2014 00:00
Search period end: 11 September 2014 00:00
Orbit: 602 x 633 km, 82.6° (Epoch: 01 September)

Date Brightness Start Highest point End Pass type
(mag) Time Alt. Az. Time Alt. Az. Time Alt. Az.
01 Sep 3.7 20:58:27 10° NNW 21:02:47 76° W 21:07:04 10° S visible
02 Sep 4.9 21:15:39 10° NNW 21:19:43 40° W 21:23:43 10° SSW visible
03 Sep 6.0 21:33:12 10° NW 21:36:32 22° W 21:39:52 10° SW visible
04 Sep 3.6 20:11:43 10° N 20:16:01 59° E 20:20:15 10° SSE visible
04 Sep 6.6 21:51:29 10° WNW 21:53:17 12° W 21:55:04 10° WSW visible
05 Sep 3.8 20:28:42 10° NNW 20:33:01 74° W 20:37:18 10° S visible
06 Sep 5.0 20:45:55 10° NNW 20:49:57 39° W 20:53:56 10° SSW visible
07 Sep 6.1 21:03:28 10° NW 21:06:46 22° W 21:10:04 10° SW visible
08 Sep 6.7 21:21:49 10° WNW 21:23:30 12° W 21:25:12 10° WSW visible
10 Sep 5.2 20:16:10 10° NNW 20:20:10 38° W 20:24:09 10° SSW visible
